WESTFORD NEEDLES, 2381

Orbit data source: Space-Track

WESTFORD NEEDLES, 2381 is space debris in LEO originally from a launch on Thu, 09 May 1963 UTC launched from the Air Force Western Test Range (AFWTR). Debris objects in space refer to the collection of defunct objects orbiting the Earth. Examples of debris include non-operational satellites, rocket bodies, and fragments generated from explosions, collisions, or faulty payload assembly.

Loading next visibility...
WESTFORD NEEDLES details
Identifier
2381, 1963-014AB
Orbit
LEO
Last TLE update4 days ago
Origin
Flag of USUSAF SSD (US)
ManufacturerUnknown
MissionSpacecraft
Bus & MotorUnknown
MassUnknown
Launch date (UTC)
1963-05-09 (62 years ago)
Launch vehicleUnknown
Launch site
Air Force Western Test Range (AFWTR)
Object type
Payload
Rocket body
Debris
Shape & HBRUnknown
Radar Cross SectionMedium (>0.1 m² and <1 m²)

Expand to show TLE details & history

TLE from 4 days ago
0 WESTFORD NEEDLES
1 02381U 63014AB  24352.42803239 -.00000010  00000-0 -60706-2 0  9999
2 02381  87.2923 150.6815 0343126 117.2174 246.4080  8.67550874343852
Epoch: 2024-12-17T10:16Z
Definitive object data (Epoch: 2024-12-17T10:16:21.998Z)
Latitude0.00006°
Longitude-89.9469°
Altitude3,775.88 km
Speed6.22 km/s
True Right ascension10h 02m 43s
True Declination0° 00' 00"
Sunlit
Object was in daylight at TLE epoch
Visualization TLE readout
Latitude74.15064°
Longitude80.10663°
Altitude3,298.67 km
Speed6.533 km/s
Apparent Right ascension22h 24m 00s
Apparent Declination35° 09' 55"
Sunlit
Object is in daylight
Visualization observer readout
Local Sidereal Time10:56:43
Azimuth6.904° NNE
Elevation-14.54°
Doppler factor1
Orbital elements
Apogee altitude3,967.619 km
Perigee altitude3,281.192 km
Semi-major axis10,002.543 km
Eccentricity0.0343126
Inclination87.2923°
RAAN150.6815°
Arg. of periapsis117.2174°
True anomaly242.8678°
Mean anomaly246.408°
Eccentric anomaly244.63161°
Mean motion2.16959 °/min
BSTAR-0.0060706
Orbital period165.93 mins
Loading maneuver chart data...

WESTFORD NEEDLES Visibility forecast

Observer location: undefined°, undefined

Span
Click to sort rows by Start time (UTC) header in descending order
Start Az.
Max El. time (UTC)
Max El. Az.
Max El.
End time (UTC)
End Az.
21 mins2024-12-21 14:06:00.988Z264.195° W2024-12-21 14:17:00.988Z304.009° NW17.516°2024-12-21 14:27:00.988Z341.551° N
26 mins2024-12-21 20:13:00.988Z13.424° NNE2024-12-21 20:26:00.988Z68.635° E25.254°2024-12-21 20:39:00.988Z120.685° SE
32 mins2024-12-21 22:59:00.988Z355.246° N2024-12-21 23:14:00.988Z270.947° WNW44.108°2024-12-21 23:31:00.988Z193.409° SSW
14 mins2024-12-22 01:49:00.988Z328.838° NNW2024-12-22 01:55:00.988Z305.637° NW15.367°2024-12-22 02:03:00.988Z275.459° WNW
31 mins2024-12-22 09:20:00.988Z138.916° SSE2024-12-22 09:36:00.988Z71.389° E35.996°2024-12-22 09:51:00.988Z9.651° NNE
|